www.pogodaiklimat.ru
ПОГОДА в Кумлинге
Время
(UTC), дата
13 6.12
14 6.12
15 6.12
16 6.12
17 6.12
18 6.12
19 6.12
20 6.12
21 6.12
22 6.12
23 6.12
00 7.12
01 7.12
02 7.12
03 7.12
04 7.12
05 7.12
06 7.12
07 7.12
08 7.12
09 7.12
10 7.12
11 7.12
12 7.12
13 7.12
14 7.12
15 7.12
16 7.12
17 7.12
18 7.12
19 7.12
20 7.12
21 7.12
22 7.12
23 7.12
00 8.12
01 8.12
02 8.12
03 8.12
04 8.12
05 8.12
06 8.12
07 8.12
08 8.12
09 8.12
10 8.12
11 8.12
12 8.12
13 8.12
14 8.12
15 8.12
16 8.12
17 8.12
18 8.12
19 8.12
20 8.12
21 8.12
22 8.12
23 8.12
00 9.12
01 9.12
02 9.12
03 9.12
04 9.12
05 9.12
06 9.12
07 9.12
08 9.12
09 9.12
10 9.12
11 9.12
12 9.12
13 9.12
14 9.12
15 9.12
16 9.12
17 9.12
18 9.12
19 9.12
20 9.12
21 9.12
22 9.12
23 9.12
00 10.12
01 10.12
02 10.12
03 10.12
04 10.12
05 10.12
06 10.12
07 10.12
08 10.12
09 10.12
10 10.12
11 10.12
12 10.12
13 10.12
14 10.12
15 10.12
16 10.12
17 10.12
18 10.12
19 10.12
20 10.12
21 10.12
22 10.12
23 10.12
00 11.12
01 11.12
02 11.12
03 11.12
04 11.12
05 11.12
06 11.12
07 11.12
08 11.12
09 11.12
10 11.12
11 11.12
12 11.12
13 11.12
14 11.12
15 11.12
16 11.12
17 11.12
18 11.12
19 11.12
20 11.12
21 11.12
22 11.12
23 11.12
00 12.12
01 12.12
02 12.12
03 12.12
04 12.12
05 12.12
06 12.12
07 12.12
08 12.12
09 12.12
10 12.12
11 12.12
12 12.12
13 12.12
14 12.12
15 12.12
16 12.12
17 12.12
18 12.12
19 12.12
20 12.12
21 12.12
22 12.12
23 12.12
00 13.12
01 13.12
02 13.12
03 13.12
04 13.12
05 13.12
06 13.12
07 13.12
08 13.12
09 13.12
10 13.12
11 13.12
12 13.12
13 13.12
Ветер
(напр.,м/с)
Видим. Явления Облачность Т
(С)
Тd
(С)
f
(%)
Тe
(С)
Тes
(С)
Комфортность P
(гПа)
Po
(гПа)
Тmin
(С)
Tmax
(С)
R
(мм)
R24
(мм)
S
(см)
З 5-7
{8}
50 км 10/10 300 м
[]
+5.6 +4.8 95 +1 +1 985.6 982.7
З 6-8
{8}
50 км 10/10 300 м
[]
+5.6 +4.5 93 +1 +1 986.2 983.3
З 5-8
{10}
50 км 10/10 300 м
[]
+5.7 +4.1 89 +1 +1 987.1 984.1
З 6-8
{10}
50 км 10/10 300 м
[]
+5.5 +3.9 89 0 0 987.6 984.7
З 6-8
{8}
12 км осадки 9/9 300 м
[]
+5.3 +4.3 93 0 0 988.4 985.5
З 6-9
{9}
50 км в посл. час снег {ливн. осадки, морось} 10/10 300 м
[]
+5.3 +3.8 90 0 0 988.7 985.7 +4.8 +5.8
З 6-9
{9}
50 км 9/1 300 м
[]
+5.1 +3.2 88 -0 -0 989.3 986.4
З 4-6
{8}
50 км 9/0
[]
+4.8 +3.2 89 +1 +1 989.5 986.5
ЮЗ 4-5
{6}
50 км 6/0
[]
+4.6 +3.2 91 0 0 990.0 987.1
ЮЗ 4-5
{5}
50 км 9/9 2000 м
[]
+4.6 +3.7 94 0 0 990.2 987.2
ЮЗ 4-5
{6}
50 км 10/6 1500 м
[]
+4.7 +4.1 96 0 0 990.4 987.4
Ю 2-3
{5}
50 км 10/1 1500 м
[]
+4.6 +4.0 96 +2 +2 989.8 986.8
ЮВ 2-3
{3}
35 км 10/10 100 м
[]
+4.5 +4.2 98 +2 +2 989.3 986.3
Ю 3-5
{5}
14 км слаб. дождь 9/9 <50 м
[]
+5.3 +5.2 99 +2 +2 988.4 985.4
ЮВ 3-3
{5}
7000 м дождь {морось} 10/10 50 м
[]
+5.9 +5.8 99 +2 +2 987.3 984.4
ЮВ 3-4
{4}
1000 м дождь ?/? +6.1 +6.0 99 +3 +3 985.9 983.0
Ю 5-6
{8}
4300 м дождь 10/10 <50 м
[]
+6.2 +6.2 100 +2 +2 984.4 981.5
ЮЗ 7-10
{10}
3400 м слаб. дождь {морось} 10/10 50 м
[]
+6.3 +6.3 100 +1 +1 983.8 980.9 +4.2 +6.3
ЮЗ 8-11
{12}
3700 м сильн. морось 10/10 50 м
[]
+6.3 +6.2 99 +1 +1 983.7 980.8
ЮЗ 7-9
{11}
50 км в посл. час морось 10/10 100 м
[]
+6.3 +6.2 99 +1 +1 983.2 980.3
ЮЗ 8-10
{11}
45 км в посл. час снег {ливн. осадки, дождь} 10/10 100 м
[]
+6.3 +6.0 98 +1 +1 982.7 979.8
ЮЗ 8-10
{11}
45 км 10/0 100 м
[]
+6.2 +5.8 97 +1 +1 981.7 978.8
ЮЗ 7-9
{10}
9000 м слаб. дождь 10/10 100 м
[]
+6.3 +6.0 98 +1 +1 980.6 977.7
ЮЗ 7-10
{10}
20 км ливневой дождь 9/9 100 м
[]
+6.5 +6.1 97 +1 +1 979.8 976.9
ЮЗ 7-9
{12}
50 км в посл. час морось 10/10 100 м
[]
+6.2 +5.8 97 +1 +1 979.3 976.5
С 11-15
{15}
8000 м слаб. морось 10/10 50 м
[]
+2.9 +2.6 98 -5 -5 980.2 977.3
СЗ 11-17
{17}
16 км в посл. час снег {ливн. осадки, морось} 10/10 200 м
[]
+3.0 +2.4 96 -5 -5 981.9 979.0
СЗ 11-15
{18}
50 км слаб. ливневой дождь 9/9 200 м
[]
+3.3 +2.3 93 -4 -4 983.0 980.0
СЗ 10-14
{16}
30 км 9/9 300 м
[]
+3.4 +2.2 92 -4 -4 984.0 981.0
СЗ 11-17
{17}
50 км {ливн. осадки, морось} 10/10 300 м
[]
+3.3 +1.4 87 -4 -4 984.7 981.8 +2.7 +6.6
СЗ 10-15
{15}
50 км в посл. час морось 10/10 300 м
[]
+3.3 +1.6 89 -4 -4 985.4 982.5
СЗ 10-14
{16}
50 км 10/10 300 м
[]
+3.4 +1.6 88 -4 -4 986.1 983.1
СЗ 10-15
{15}
50 км {ливн. осадки, морось} 6/6 300 м
[]
+3.6 +1.3 85 -3 -3 986.8 983.9
СЗ 11-15
{15}
50 км 4/4 300 м
[]
+3.5 +1.0 84 -4 -4 987.5 984.6
СЗ 10-14
{15}
50 км 4/4 300 м
[]
+3.4 +0.6 82 -4 -4 988.3 985.3
СЗ 9-13
{15}
50 км {ливн. осадки, морось} 1/0 300 м
[]
+3.3 +0.2 80 -3 -3 988.8 985.8
З 8-11
{14}
50 км ясно +2.8 +0.2 83 -4 -4 989.4 986.4
З 7-12
{12}
50 км ясно +2.3 +0.7 89 -4 -4 989.8 986.9
З 7-10
{11}
50 км ясно +1.9 -0.1 87 -5 -5 989.8 986.8
З 7-10
{11}
50 км ясно +1.6 -0.7 85 -5 -5 989.9 986.9
З 5-7
{9}
50 км ясно +1.2 -0.8 87 -5 -5 990.1 987.1
З 7-9
{11}
50 км ясно +1.3 -1.2 83 -5 -5 989.6 986.7 +1.2 +3.7
ЮЗ 7-9
{10}
50 км ясно +1.5 -1.2 82 -5 -5 989.3 986.3
ЮЗ 6-9
{10}
50 км 6/0
[]
+1.6 -0.5 86 -5 -5 989.0 986.0
ЮЗ 6-8
{9}
50 км 1/0
[]
+2.1 +0.1 87 -4 -4 988.4 985.5
Ю 4-6
{10}
50 км 9/1 300 м
[]
+2.6 +0.5 86 -2 -2 987.5 984.5
ЮЗ 7-9
{9}
50 км 9/9 2000 м
[]
+2.7 -0.2 81 -4 -4 986.3 983.4
Ю 4-6
{9}
50 км 9/6 1500 м
[]
+2.9 -0.2 80 -2 -2 984.8 981.8
Ю 5-8
{10}
8000 м слаб. дождь 10/10 300 м
[]
+2.3 +1.1 92 -3 -3 983.2 980.2
Ю 7-11
{11}
8000 м дождь 10/10 200 м
[]
+2.4 +1.8 96 -4 -4 981.0 978.0
ЮВ 7-11
{13}
23 км морось {дождь} 10/10 200 м
[]
+3.3 +2.8 97 -3 -3 978.3 975.3
Ю 7-9
{10}
7000 м слаб. дождь 9/9 100 м
[]
+5.4 +5.2 99 -0 -0 975.9 973.0
Ю 7-10
{11}
6000 м слаб. дождь 10/10 100 м
[]
+6.0 +5.8 99 +1 +1 974.0 971.2
Ю 9-13
{14}
4400 м переохл. дождь (гололёд) {морось} 10/10 100 м
[]
+6.3 +6.0 98 0 0 972.2 969.3 +1.2 +6.3
ЮЗ 12-17
{18}
45 км в посл. час снег 9/9 100 м
[]
+6.7 +5.8 94 0 0 971.5 968.7
ЮЗ 11-16
{17}
50 км 9/6 300 м
[]
+6.5 +5.5 93 0 0 971.0 968.2
ЮЗ 12-15
{16}
50 км {дождь} 1/0 600 м
[]
+6.4 +4.7 89 -0 -0 971.4 968.5
ЮЗ 13-17
{17}
30 км ясно +6.3 +3.5 82 -0 -0 971.9 969.0
ЮЗ 11-15
{17}
25 км 4/0 600 м
[]
+6.1 +3.5 83 -0 -0 972.6 969.7
ЮЗ 12-18
{18}
24 км {дождь} 1/0 600 м
[]
+6.0 +3.1 82 -1 -1 972.8 969.9
ЮЗ 11-14
{18}
21 км 9/9 600 м
[]
+6.2 +3.1 81 0 0 973.5 970.6
ЮЗ 11-15
{16}
22 км 9/9 600 м
[]
+6.1 +3.1 81 -0 -0 974.1 971.2
ЮЗ 11-16
{16}
25 км 9/9 600 м
[]
+5.9 +3.0 82 -0 -0 974.5 971.7
ЮЗ 10-14
{17}
30 км 9/9 600 м
[]
+6.0 +2.8 80 0 0 975.2 972.3
ЮЗ 10-15
{15}
35 км 9/9 600 м
[]
+6.2 +2.8 79 0 0 975.8 972.9
ЮЗ 10-15
{15}
45 км 9/9 600 м
[]
+6.0 +2.8 80 0 0 976.6 973.7 +5.9 +6.9
ЮЗ 10-13
{15}
40 км 9/9 600 м
[]
+5.9 +2.8 80 -0 -0 977.7 974.8
ЮЗ 9-13
{15}
40 км 10/10 600 м
[]
+5.9 +3.1 82 0 0 978.8 975.9
ЮЗ 10-13
{13}
30 км ливневой дождь {туман} 10/10 600 м
[]
+5.7 +3.4 85 -1 -1 979.6 976.7
ЮЗ 8-11
{15}
13 км слаб. дождь 9/9 600 м
[]
+5.4 +4.0 91 -0 -0 980.3 977.4
ЮЗ 9-12
{15}
21 км слаб. ливневой дождь 9/9 300 м
[]
+5.7 +4.0 89 -0 -0 981.0 978.1
ЮЗ 8-11
{14}
8000 м сильн. ливневой дождь 9/9 300 м
[]
+5.1 +4.3 95 -1 -1 982.0 979.1
ЮЗ 7-10
{12}
29 км в посл. час дождь 9/9 300 м
[]
+5.3 +4.2 93 -0 -0 982.9 979.9
З 7-10
{11}
12 км ливневой дождь 9/9 200 м
[]
+5.1 +4.3 95 -1 -1 983.9 981.0
СЗ 4-6
{8}
6000 м дождь {ливн. осадки} 9/9 100 м
[]
+3.8 +3.4 97 -1 -1 985.1 982.1
С 4-6
{6}
6000 м дождь 10/10 100 м
[]
+3.2 +2.9 98 -2 -2 986.4 983.4
С 4-6
{8}
9000 м слаб. дождь 10/10 50 м
[]
+1.2 +0.9 98 -4 -4 987.9 984.9
С 4-6
{6}
7000 м слаб. дождь 10/10 50 м
[]
+1.1 +0.9 99 -4 -4 988.9 985.9 +1.0 +6.1
-7
{7}
11 км слаб. дождь 10/10 100 м
[]
+1.2 +1.1 99 990.5 987.5
С 6-9
{10}
15 км слаб. дождь 10/10 600 м
[]
+1.2 +0.7 96 -5 -5 991.7 988.7
С 7-10
{10}
9000 м слаб. дождь {морось} 10/10 100 м
[]
+1.1 +0.7 97 -6 -6 992.7 989.7
С 7-11
{12}
15 км слаб. ливневой снег 10/10 200 м
[]
+0.7 +0.2 96 -6 -6 994.1 991.1
С 7-10
{11}
28 км слаб. снег 9/9 300 м
[]
+0.9 -0.3 92 -6 -6 995.5 992.5
С 7-10
{12}
5000 м слаб. снег 9/9 300 м
[]
+0.5 -0.5 93 -7 -7 996.7 993.7
С 7-11
{11}
50 км в посл. час снег 10/10 600 м
[]
+1.0 -1.3 85 -6 -6 997.9 994.9
С 7-11
{11}
50 км 9/4 600 м
[]
+1.1 -2.3 78 -6 -6 999.4 996.4
С 8-13
{13}
50 км {снег} 9/9
[]
+1.1 -3.1 74 -6 -6 1000.8 997.8
С 9-12
{13}
50 км 9/1 600 м
[]
+1.2 -3.2 72 -6 -6 1002.2 999.1
СЗ 9-12
{12}
50 км 1/0 600 м
[]
+1.1 -4.4 67 -6 -6 1003.2 1000.1
СЗ 8-11
{12}
50 км {снег} 6/6 600 м
[]
+1.1 -3.7 70 -6 -6 1004.5 1001.5 +0.2 +1.3
СЗ 7-11
{12}
50 км 9/9 600 м
[]
+1.3 -3.2 72 -5 -5 1005.8 1002.7
СЗ 7-11
{11}
50 км 9/9 600 м
[]
+1.5 -2.9 73 -5 -5 1006.8 1003.7
С 7-10
{11}
50 км 9/9 600 м
[]
+1.8 -3.3 69 -4 -4 1008.3 1005.2
СЗ 7-10
{11}
50 км в посл. час снег 9/9 600 м
[]
+1.8 -4.9 61 -4 -4 1009.1 1006.1
С 8-11
{13}
40 км ливневой дождь 9/9 600 м
[]
+1.3 -2.5 76 -6 -6 1010.1 1007.1
СЗ 6-8
{11}
50 км в посл. час снег {ливн. осадки} 9/9 1000 м
[]
+1.7 -4.2 65 -4 -4 1011.1 1008.0
СЗ 7-9
{10}
45 км осадки 9/9 600 м
[]
+1.5 -2.8 73 -5 -5 1012.5 1009.4
СЗ 5-7
{10}
50 км 9/9 600 м
[]
+1.2 -3.4 71 -4 -4 1013.4 1010.4
СЗ 3-5
{7}
50 км {ливн. осадки, туман} 1/0 600 м
[]
+0.9 -3.6 72 -3 -3 1014.0 1011.0
В 2-2
{5}
50 км 9/9 300 м
[]
+0.2 -2.6 81 -3 -3 1015.0 1012.0
ЮЗ 1-2
{4}
50 км 9/9 600 м
[]
+0.5 -2.1 83 -1 -1 1015.5 1012.4
ЮЗ 4-5
{5}
50 км {ливн. осадки, туман} 6/0 600 м
[]
+0.4 -3.0 78 -5 -5 1015.5 1012.5 +0.1 +1.9
ЮЗ 4-5
{5}
50 км 1/0
[]
-0.2 -2.9 82 -6 -6 1015.3 1012.3
Ю 4-6
{6}
50 км 9/0
[]
0.0 -2.9 81 -5 -5 1015.5 1012.4
Ю 6-9
{9}
50 км 9/0
[]
+1.0 -2.6 77 -5 -5 1014.9 1011.8
Ю 7-11
{11}
50 км 6/6
[]
+1.5 -2.5 75 -5 -5 1014.5 1011.4
Ю 8-13
{13}
50 км 9/1 600 м
[]
+2.0 -2.5 72 -5 -5 1013.8 1010.7
Ю 9-14
{14}
50 км 9/1 600 м
[]
+2.3 -2.0 73 -5 -5 1012.8 1009.7
Ю 10-14
{15}
50 км 9/1 600 м
[]
+2.8 -1.1 75 -4 -4 1011.7 1008.7
Ю 10-15
{17}
50 км 9/9
[]
+3.5 -1.2 71 -3 -3 1010.7 1007.6
Ю 11-18
{19}
50 км 9/9
[]
+3.8 -1.6 68 -3 -3 1009.3 1006.3
Ю 11-17
{18}
50 км 9/0
[]
+3.9 -0.7 72 -3 -3 1008.2 1005.2
Ю 14-22
{22}
50 км 9/9 2000 м
[]
+4.3 -1.3 67 -3 -3 1006.8 1003.8
Ю 14-24
{24}
50 км 9/9
[]
+4.5 -0.9 68 -3 -3 1005.3 1002.3 -0.3 +4.5
Ю 14-21
{22}
50 км 9/4 600 м
[]
+4.6 -0.1 72 -3 -3 1004.7 1001.7
Ю 14-22
{22}
15 км морось 9/9 600 м
[]
+4.7 +1.6 80 -3 -3 1003.8 1000.8
Ю 14-21
{25}
12 км слаб. дождь {морось} 9/9 300 м
[]
+3.8 +2.3 90 -4 -4 1003.8 1000.8
Ю 13-20
{22}
6000 м слаб. дождь 9/9 300 м
[]
+4.3 +3.0 91 -3 -3 1003.3 1000.4
Ю 13-18
{21}
14 км слаб. ливневой дождь 9/9 300 м
[]
+5.0 +2.9 86 -2 -2 1003.0 1000.0
Ю 12-18
{18}
12 км слаб. дождь 9/9 300 м
[]
+4.7 +3.4 91 -3 -3 1002.6 999.6
ЮЗ 10-14
{19}
5000 м слаб. ливневой дождь 10/10 200 м
[]
+4.8 +4.0 95 -2 -2 1003.0 1000.0
ЮЗ 9-14
{17}
9000 м слаб. дождь 10/10 300 м
[]
+4.9 +4.0 94 -2 -2 1003.4 1000.4
ЮЗ 9-13
{15}
30 км в посл. час дождь со снегом {ливн. осадки} 10/10 300 м
[]
+5.1 +4.0 93 -1 -1 1003.8 1000.8
ЮЗ 7-10
{13}
30 км 10/10 300 м
[]
+5.2 +4.0 92 -0 -0 1004.2 1001.2
ЮЗ 7-11
{11}
30 км 10/10 300 м
[]
+5.3 +4.1 92 -0 -0 1004.3 1001.3
ЮЗ 7-10
{10}
40 км {ливн. осадки, дождь} 10/10 300 м
[]
+5.3 +4.0 91 -0 -0 1004.4 1001.4 +3.6 +5.4
ЮЗ 7-10
{10}
40 км 10/10 200 м
[]
+5.3 +4.0 91 -0 -0 1004.5 1001.5
ЮЗ 7-9
{10}
45 км 10/10 300 м
[]
+5.3 +3.9 91 -0 -0 1004.8 1001.8
ЮЗ 6-8
{8}
35 км 10/0 200 м
[]
+5.3 +4.1 92 0 0 1004.8 1001.8
Ю 4-6
{8}
16 км осадки 10/10 100 м
[]
+5.0 +4.5 97 +1 +1 1004.5 1001.6
Ю 6-8
{8}
28 км слаб. дождь 9/9 200 м
[]
+5.1 +4.5 96 -0 -0 1004.3 1001.3
Ю 6-10
{10}
14 км слаб. дождь {морось} 10/10 100 м
[]
+5.0 +4.6 97 -0 -0 1004.2 1001.2
Ю 7-10
{11}
17 км слаб. дождь 9/9 200 м
[]
+4.3 +3.6 95 -2 -2 1004.0 1001.0
Ю 8-11
{11}
21 км слаб. дождь 10/10 300 м
[]
+4.0 +2.9 93 -2 -2 1003.8 1000.8
Ю 7-9
{10}
17 км дождь 10/10 300 м
[]
+3.9 +3.1 95 -2 -2 1003.4 1000.4
Ю 7-10
{10}
15 км слаб. дождь 10/10 200 м
[]
+3.7 +3.1 96 -2 -2 1003.2 1000.3
Ю 6-9
{9}
28 км слаб. дождь 10/10 200 м
[]
+3.8 +3.2 96 -2 -2 1002.8 999.8
Ю 8-12
{12}
24 км слаб. дождь 9/9 200 м
[]
+3.7 +3.0 95 -3 -3 1002.5 999.5 +3.6 +5.4
Ю 7-10
{11}
35 км слаб. дождь 10/10 200 м
[]
+3.8 +3.0 95 -2 -2 1002.4 999.4
Ю 8-12
{12}
13 км слаб. дождь 10/10 300 м
[]
+3.9 +3.0 94 -3 -3 1002.6 999.6
Ю 8-11
{14}
12 км морось {дождь} 9/9 200 м
[]
+3.8 +2.9 94 -3 -3 1002.3 999.3
Ю 8-12
{12}
18 км слаб. ливневой дождь 10/10 300 м
[]
+4.3 +2.5 88 -2 -2 1001.9 998.9
Ю 9-14
{14}
13 км слаб. ливневой дождь 9/9 300 м
[]
+4.2 +2.0 86 -2 -2 1001.5 998.5
Ю 9-13
{14}
23 км ливневой дождь 9/9 720 м
[]
+4.1 +1.2 81 -2 -2 1001.1 998.2
Ю 10-15
{15}
26 км слаб. ливневой дождь 10/10 900 м
[]
+3.8 +0.9 81 -3 -3 1000.7 997.7
Ю 9-13
{16}
45 км 10/10 870 м
[]
+3.6 +0.1 78 -3 -3 1000.4 997.5
Ю 9-13
{14}
45 км {ливн. осадки, морось} 10/10 1000 м
[]
+3.8 -0.9 71 -3 -3 999.9 996.9
Ю 9-14
{14}
10 км слаб. дождь 9/9 600 м
[]
+2.3 +0.9 90 -5 -5 999.3 996.3
Ю 8-12
{13}
50 км слаб. ливневой дождь 10/10 1110 м
[]
+3.0 +1.7 91 -4 -4 998.8 995.8
Ю 8-12
{14}
50 км в посл. час дождь со снегом {ливн. осадки} 10/10 840 м
[]
+3.2 +1.5 89 -3 -3 998.2 995.2 +2.3 +4.4
Ю 8-12
{13}
35 км в посл. час дождь 9/9 720 м
[]
+2.7 +1.4 91 -4 -4 997.9 994.9
Ю 8-12
{12}
50 км в посл. час дождь 9/9 900 м
[]
+3.6 +0.3 79 -3 -3 997.3 994.4
Ю 7-12
{14}
11 км ливневой дождь 9/9 870 м
[]
+1.8 +0.8 93 -5 -5 997.3 994.3
Ю 6-9
{10}
30 км в посл. час морось 10/10 1410 м
[]
+3.3 +1.3 87 -2 -2 996.7 993.8
Ю 6-9
{11}
30 км 10/10 1300 м
[]
+4.1 +0.4 77 -1 -1 996.5 993.5
Ю 5-8
{11}
13 км в посл. час дождь со снегом {ливн. осадки} 10/10 1000 м
[]
+3.3 +2.2 92 -2 -2 996.5 993.5
Ю 4-5
{8}
16 км 9/9 1300 м
[]
+3.4 +0.9 84 -1 -1 996.7 993.7
Ю 5-6
{7}
16 км 9/9 1320 м
[]
+3.9 +1.5 84 -1 -1 996.7 993.7
Ю 5-6
{10}
22 км в посл. час снег {ливн. осадки, морось} 9/9 870 м
[]
+3.3 +1.4 87 -2 -2 996.9 993.9
Ю 4-5
{9}
18 км в посл. час морось 9/9 420 м
[]
+4.0 +3.0 93 -1 -1 996.9 993.9
ЮЗ 4-6
{7}
27 км 10/10 1500 м
[]
+4.3 +3.4 94 -0 -0 997.1 994.2
Ю 5-6
{7}
26 км {ливн. осадки, морось} 10/10 1500 м
[]
+4.2 +3.1 93 -1 -1 997.4 994.5 +1.7 +4.4
Ю 3-5
{7}
22 км 4/1 1500 м
[]
+3.5 +2.5 93 -1 -1 998.0 995.0
Ю 5-6
{7}
50 км 10/10 1500 м
[]
+3.9 +2.0 87 -1 -1 998.5 995.5
Ю 4-5
{6}
50 км {ливн. осадки, туман} 9/9 1500 м
[]
+4.2 +2.2 87 -0 -0 998.9 995.9
ЮВ 3-4
{6}
50 км 10/10 1500 м
[]
+4.6 +3.1 90 +1 +1 998.8 995.8
Ю 3-4
{14}
50 км в посл. час дождь 9/9 1350 м
[]
+4.2 +2.5 89 0 0 998.8 995.8
Ю 5-7
{8}
45 км ливневой дождь 9/9 960 м
[]
+4.1 +3.0 93 -1 -1 998.6 995.6
Ю 6-11
{11}
10 км слаб. дождь 9/9 1050 м
[]
+3.8 +2.6 92 -2 -2 998.6 995.6
Местоположение метеостанции Кумлинге (Финляндия): широта 60.26 долгота 20.75 высота над уровнем моря 23 м.
В архиве по умолчанию представлена погода в Кумлинге за последнюю неделю. Архивные данные за месяц целиком и за предыдущие месяцы, начиная с января 2011 года, Вы можете получить, выбрав интересующий диапазон дат из раскрывающегося списка и нажав кнопку "Найти!".
*Определитесь, кто Вы:
Внимание! Время в таблицах - всемирное. Для получения местного времени необходимо прибавить поправку, которая равна 1 ч.
Смотрите также архив погоды в соседних городах и на ближайших метеорологических станциях:
Партнеры нашего сайта:      
Пояснения к столбцам:
  • Ветер - указаны скорость ветра в м/с - средняя за 10 мин, порывы в срок и между сроками (в фигурных скобках) и направление, откуда дует ветер: С - северный,
  • СВ - северо-восточный, В - восточный, ЮВ - юго-восточный, Ю - южный, ЮЗ - юго-западный, З - западный, СЗ - северо-западный.
  • Видимость - горизонтальная дальность видимости в метрах или километрах. При видимости от 1 до 10 км при отсутствии осадков обычно наблюдается дымка, при ухудшении видимости до 1 км и менее - туман. В сухую погоду видимость может ухудшаться дымом, пылью или мглою.
  • Явления - указаны атмосферные явления, наблюдавшиеся в срок или в последний час перед сроком; фигурными скобками обозначены явления, наблюдавшиеся между сроками (за 1-3 часа до срока); квадратными скобками обозначены град или гололедные отложения с указанием их диаметра в мм.
  • Облачность - указаны через наклонную черту общая и нижняя облачность в баллах и высота нижней границы облаков в метрах; квадратными скобками обозначены формы облаков: Ci - перистые, Cs - перисто-слоистые, Cc - перисто-кучевые, Ac - высококучевые, As - высокослоистые, Sc - слоисто-кучевые, Ns - слоисто-дождевые, Cu - кучевые, Cb - кучево-дождевые. Подробнее классификацию облаков см. в Атласе облаков (PDF).
  • T - Температура воздуха - температура, измеренная на высоте 2 м над землей.
  • Td - Температура точки росы - температура, при понижении до которой содержащийся в воздухе водяной пар достигнет насыщения.
  • f - Относительная влажность воздуха - влажноcть воздуха, измеренная на высоте 2 м над землей.
  • Te - Эффективная температура - температура, которую ощущает одетый по сезону человек в тени. Характеристика душности погоды. При расчете учитывается влияние влажности воздуха и скорости ветра на теплоощущения человека.
  • Tes - Эффективная температура на солнце - температура, которую ощущает человек, с поправкой на солнечный нагрев. Характеристика знойности погоды. Зависит от высоты солнца над горизонтом, облачности и скорости ветра. Ночью, в пасмурную погоду, а также при ветре 12 м/с и более поправка равна нулю.
  • P - Атмосферное давление - приведенное к уровню моря атмосферное давление.
  • Po - Атмосферное давление - измеренное на уровне метеостанции атмосферное давление.
  • Tmin - Минимальная температура - минимум температуры воздуха на высоте 2 м над землей.
  • Tmax - Максимальная температура - максимум температуры воздуха на высоте 2 м над землей.
  • R - Количество осадков - Количество выпавших осадков за период времени, мм. При наведении курсора мыши на число - период времени, за который выпало указанное количество осадков.
  • R24 - Количество осадков - Количество выпавших осадков за 24 часа, мм.
  • S - Снежный покров - Высота снежного покрова, см. При наведении курсора мыши на число - состояние снежного покрова и степень покрытия местности в баллах.